Time,TemperatureF,DewpointF,PressureIn,WindDirection,WindDirectionDegrees,WindSpeedMPH,WindSpeedGustMPH,Humidity,HourlyPrecipIn,Conditions,Clouds,dailyrainin,SoftwareType,DateUTC
2013-01-21 00:31:00,18.0,5.7,29.87,WNW,292,10.0,32.0,58,0.00,,,0.00,Weather View 32 v70,2013-01-21 05:31:00,
2013-01-21 00:33:00,18.0,5.7,29.87,WNW,292,10.0,32.0,58,0.00,,,0.00,Weather View 32 v70,2013-01-21 05:33:00,
2013-01-21 01:01:00,17.0,4.4,29.88,WSW,247,9.0,28.0,57,0.00,,,0.00,Weather View 32 v70,2013-01-21 06:01:00,
2013-01-21 01:33:00,16.0,3.1,29.89,West,270,14.0,35.0,56,0.00,,,0.00,Weather View 32 v70,2013-01-21 06:33:00,
2013-01-21 02:31:00,15.0,2.9,29.93,WNW,292,12.0,29.0,58,0.00,,,0.00,Weather View 32 v70,2013-01-21 07:31:00,
2013-01-21 02:37:00,15.0,2.9,29.93,WNW,292,12.0,29.0,58,0.00,,,0.00,Weather View 32 v70,2013-01-21 07:37:00,
2013-01-21 03:01:00,14.0,1.9,29.96,WSW,247,15.0,28.0,58,0.00,,,0.00,Weather View 32 v70,2013-01-21 08:01:00,
2013-01-21 03:30:00,14.0,2.7,29.96,WSW,247,9.0,25.0,60,0.00,,,0.00,Weather View 32 v70,2013-01-21 08:30:00,
2013-01-21 04:01:00,13.0,2.1,29.98,WSW,247,13.0,24.0,61,0.00,,,0.00,Weather View 32 v70,2013-01-21 09:01:00,
2013-01-21 04:30:00,12.0,1.8,30.02,WSW,247,10.0,23.0,63,0.00,,,0.00,Weather View 32 v70,2013-01-21 09:30:00,
2013-01-21 04:32:00,12.0,1.8,30.02,WSW,247,10.0,23.0,63,0.00,,,0.00,Weather View 32 v70,2013-01-21 09:32:00,
2013-01-21 05:01:00,11.0,1.2,30.01,West,270,9.0,28.0,64,0.00,,,0.00,Weather View 32 v70,2013-01-21 10:01:00,
2013-01-21 05:30:00,11.0,1.5,30.03,WSW,247,7.0,28.0,65,0.00,,,0.00,Weather View 32 v70,2013-01-21 10:30:00,
2013-01-21 05:31:00,11.0,1.5,30.03,WSW,247,7.0,28.0,65,0.00,,,0.00,Weather View 32 v70,2013-01-21 10:31:00,
2013-01-21 06:01:00,10.0,0.9,30.05,SW,225,15.0,23.0,66,0.00,,,0.00,Weather View 32 v70,2013-01-21 11:01:00,
2013-01-21 06:30:00,9.0,1.2,30.07,SW,225,6.0,20.0,70,0.00,,,0.00,Weather View 32 v70,2013-01-21 11:30:00,
2013-01-21 06:31:00,9.0,1.2,30.07,SW,225,6.0,20.0,70,0.00,,,0.00,Weather View 32 v70,2013-01-21 11:31:00,
2013-01-21 07:05:00,9.0,0.6,30.07,SW,225,7.0,19.0,68,0.00,,,0.00,Weather View 32 v70,2013-01-21 12:05:00,
2013-01-21 07:30:00,9.0,0.3,30.09,WSW,247,15.0,19.0,67,0.00,,,0.00,Weather View 32 v70,2013-01-21 12:30:00,
2013-01-21 07:31:00,9.0,0.3,30.09,WSW,247,15.0,19.0,67,0.00,,,0.00,Weather View 32 v70,2013-01-21 12:31:00,
2013-01-21 08:03:00,10.0,-0.8,30.09,SW,225,15.0,19.0,61,0.00,,,0.00,Weather View 32 v70,2013-01-21 13:03:00,
2013-01-21 08:30:00,11.0,-0.5,30.09,West,270,13.0,22.0,59,0.00,,,0.00,Weather View 32 v70,2013-01-21 13:30:00,
2013-01-21 08:31:00,11.0,-0.5,30.09,West,270,13.0,22.0,59,0.00,,,0.00,Weather View 32 v70,2013-01-21 13:31:00,
2013-01-21 09:00:00,12.0,-1.5,30.10,WSW,247,10.0,22.0,54,0.00,,,0.00,Weather View 32 v70,2013-01-21 14:00:00,
2013-01-21 09:31:00,13.0,-1.7,30.11,WSW,247,11.0,23.0,51,0.00,,,0.00,Weather View 32 v70,2013-01-21 14:31:00,
2013-01-21 10:01:00,14.0,-2.1,30.11,WSW,247,11.0,23.0,48,0.00,,,0.00,Weather View 32 v70,2013-01-21 15:01:00,
2013-01-21 10:31:00,14.0,-3.0,30.12,SSW,202,16.0,24.0,46,0.00,,,0.00,Weather View 32 v70,2013-01-21 15:31:00,
2013-01-21 11:02:00,15.0,-3.0,30.11,WSW,247,14.0,24.0,44,0.00,,,0.00,Weather View 32 v70,2013-01-21 16:02:00,
2013-01-21 11:31:00,16.0,-4.1,30.09,West,270,7.0,20.0,40,0.00,,,0.00,Weather View 32 v70,2013-01-21 16:31:00,
2013-01-21 12:01:00,17.0,-4.2,30.06,WNW,292,14.0,25.0,38,0.00,,,0.00,Weather View 32 v70,2013-01-21 17:01:00,
2013-01-21 12:31:00,18.0,-3.9,30.05,SW,225,10.0,25.0,37,0.00,,,0.00,Weather View 32 v70,2013-01-21 17:31:00,
2013-01-21 13:01:00,19.0,-3.6,30.03,WNW,292,4.0,21.0,36,0.00,,,0.00,Weather View 32 v70,2013-01-21 18:01:00,
2013-01-21 13:33:00,19.0,-6.0,30.03,WSW,247,12.0,21.0,32,0.00,,,0.00,Weather View 32 v70,2013-01-21 18:33:00,
2013-01-21 14:01:00,20.0,-5.1,30.03,SSW,202,11.0,19.0,32,0.00,,,0.00,Weather View 32 v70,2013-01-21 19:01:00,
2013-01-21 14:31:00,20.0,-5.1,30.02,SSW,202,10.0,20.0,32,0.00,,,0.00,Weather View 32 v70,2013-01-21 19:31:00,
2013-01-21 15:01:00,21.0,-4.2,30.02,WSW,247,6.0,20.0,32,0.00,,,0.00,Weather View 32 v70,2013-01-21 20:01:00,
2013-01-21 15:31:00,20.0,-3.9,30.03,SW,225,7.0,16.0,34,0.00,,,0.00,Weather View 32 v70,2013-01-21 20:31:00,
2013-01-21 16:02:00,19.0,-3.6,30.03,West,270,2.0,15.0,36,0.00,,,0.00,Weather View 32 v70,2013-01-21 21:02:00,
2013-01-21 16:07:00,19.0,-3.6,30.03,West,270,2.0,15.0,36,0.00,,,0.00,Weather View 32 v70,2013-01-21 21:07:00,
2013-01-21 16:33:00,18.0,-3.3,30.03,NNW,337,3.0,10.0,38,0.00,,,0.00,Weather View 32 v70,2013-01-21 21:33:00,
2013-01-21 17:00:00,18.0,-1.2,30.03,NW,315,5.0,7.0,42,0.00,,,0.00,Weather View 32 v70,2013-01-21 22:00:00,
2013-01-21 17:01:00,18.0,-1.2,30.03,NW,315,5.0,7.0,42,0.00,,,0.00,Weather View 32 v70,2013-01-21 22:01:00,
2013-01-21 17:32:00,17.0,-1.6,30.03,North,360,2.0,6.0,43,0.00,,,0.00,Weather View 32 v70,2013-01-21 22:32:00,
2013-01-21 18:00:00,17.0,2.4,30.03,NW,315,4.0,6.0,52,0.00,,,0.00,Weather View 32 v70,2013-01-21 23:00:00,
2013-01-21 18:04:00,17.0,2.4,30.03,NW,315,4.0,6.0,52,0.00,,,0.00,Weather View 32 v70,2013-01-21 23:04:00,
2013-01-21 18:31:00,17.0,3.2,30.03,NW,315,3.0,6.0,54,0.00,,,0.00,Weather View 32 v70,2013-01-21 23:31:00,
2013-01-21 19:00:00,18.0,3.8,30.02,NW,315,5.0,7.0,53,0.00,,,0.00,Weather View 32 v70,2013-01-22 00:00:00,
2013-01-21 19:02:00,18.0,3.8,30.02,NW,315,5.0,7.0,53,0.00,,,0.00,Weather View 32 v70,2013-01-22 00:02:00,
2013-01-21 19:34:00,18.0,2.9,30.03,NW,315,5.0,7.0,51,0.00,,,0.00,Weather View 32 v70,2013-01-22 00:34:00,
2013-01-21 20:00:00,17.0,3.6,30.04,NNW,337,6.0,9.0,55,0.00,,,0.00,Weather View 32 v70,2013-01-22 01:00:00,
2013-01-21 20:03:00,17.0,3.6,30.04,NNW,337,6.0,9.0,55,0.00,,,0.00,Weather View 32 v70,2013-01-22 01:03:00,
2013-01-21 20:30:00,17.0,1.6,30.03,NW,315,6.0,9.0,50,0.00,,,0.00,Weather View 32 v70,2013-01-22 01:30:00,
2013-01-21 21:00:00,17.0,3.6,30.03,NW,315,3.0,9.0,55,0.00,,,0.00,Weather View 32 v70,2013-01-22 02:00:00,
2013-01-21 21:02:00,17.0,3.6,30.03,NW,315,3.0,9.0,55,0.00,,,0.00,Weather View 32 v70,2013-01-22 02:02:00,
2013-01-21 21:30:00,17.0,6.2,30.03,NNW,337,6.0,10.0,62,0.00,,,0.00,Weather View 32 v70,2013-01-22 02:30:00,
2013-01-21 22:00:00,17.0,4.4,30.03,NNW,337,6.0,10.0,57,0.00,,,0.00,Weather View 32 v70,2013-01-22 03:00:00,
2013-01-21 22:01:00,17.0,4.4,30.03,NNW,337,6.0,10.0,57,0.00,,,0.00,Weather View 32 v70,2013-01-22 03:01:00,
2013-01-21 22:32:00,17.0,3.2,30.02,NNW,337,6.0,10.0,54,0.00,,,0.00,Weather View 32 v70,2013-01-22 03:32:00,
2013-01-21 23:03:00,16.0,4.6,30.00,NNW,337,7.0,11.0,60,0.00,,,0.00,Weather View 32 v70,2013-01-22 04:03:00,
2013-01-21 23:31:00,16.0,10.4,29.96,North,360,9.0,12.0,78,0.00,,,0.00,Weather View 32 v70,2013-01-22 04:31:00,